Regional Weather Roundup
Issued by NWS

Home | Current Version | Previous Version | Text Only | Print | Product List | Glossary Off
Versions: 1 2 3 4 5 6 7 8 9 10 11 12 13 14 15 16 17 18 19 20 21 22 23 24 25 26 27 28 29 30 31 32 33 34 35 36 37 38 39 40 41 42 43 44 45 46 47 48 49 50

000
ASUS43 KBIS 220901
RWRND

NORTH DAKOTA REGIONAL WEATHER ROUNDUP
NATIONAL WEATHER SERVICE BISMARCK ND
400 AM CDT FRI MAY 22 2015

NOTE: "FAIR" INDICATES FEW OR NO CLOUDS BELOW 12,000 FEET WITH NO
SIGNIFICANT WEATHER AND/OR OBSTRUCTIONS TO VISIBILITY.


NDZ001>003-009>011-017-221000-
NORTHWEST NORTH DAKOTA

CITY           SKY/WX    TMP DP  RH WIND       PRES   REMARKS
WILLISTON      CLEAR     42  36  79 CALM      30.11S
MINOT          CLEAR     52  34  50 S5        30.12F
MINOT AFB      CLEAR     46  40  81 S6        30.12S
$$

NDZ018>021-031>035-040>046-221000-
SOUTHWEST NORTH DAKOTA

CITY           SKY/WX    TMP DP  RH WIND       PRES   REMARKS
BISMARCK       CLEAR     47  41  80 NE7       30.15R
DICKINSON      CLEAR     40  31  70 S3        30.11S
GARRISON         N/A     44  36  73 CALM      30.14S
HETTINGER ARPT CLEAR     39  31  72 CALM      30.14F
$$

NDZ004>008-012>016-024-026-027-054-221000-
NORTHEAST NORTH DAKOTA

CITY           SKY/WX    TMP DP  RH WIND       PRES   REMARKS
GRAND FORKS    CLEAR     41  37  86 SW3       30.15R
GRND FRKS AFB  CLEAR     41  37  85 SW2       30.15R
DEVILS LAKE    CLEAR     46  37  71 S3        30.15R
$$

NDZ022-023-025-028>030-036>039-047>053-221000-
SOUTHEAST NORTH DAKOTA

CITY           SKY/WX    TMP DP  RH WIND       PRES   REMARKS
FARGO          CLEAR     44  40  85 CALM      30.16R
JAMESTOWN      CLEAR     47  43  86 CALM      30.15S
$$




USA.gov is the U.S. government's official web portal to all federal, state and local government web resources and services.